Weather History for Reno, NV

Change the Weather History Date:

Thursday, October 17, 2013

  Actual Average Record
Temperature  
Mean Temperature 52 °F 54 °F  
Max Temperature 70 °F 69 °F 87 °F (1973)
Min Temperature 34 °F 38 °F 10 °F (1893)
Degree Days  
Heating Degree Days 13 11  
Month to date heating degree days 223 147  
Since 1 July heating degree days 308 237  
Cooling Degree Days 0 0  
Month to date cooling degree days 0 4  
Year to date cooling degree days 1174 838  
Growing Degree Days 2 (Base 50)    
Moisture  
Dew Point 24 °F    
Average Humidity 42    
Maximum Humidity 70    
Minimum Humidity 14    
Precipitation  
Precipitation 0.00 in 0.02 in 0.49 in (2010)
Month to date precipitation 0.01 0.28  
Year to date precipitation 3.07 5.32  
Snow  
Snow 0.00 in 0.00 in 0.90 in (1971)
Month to date snowfall 0.0 0.1  
Since 1 July snowfall T 0.2  
Since 1 September snowfall 0.0 0.2  
Snow Depth 0.00 in    
Sea Level Pressure  
Sea Level Pressure 30.12 in    
Wind  
Wind Speed 2 mph (NNE)    
Max Wind Speed 12 mph    
Max Gust Speed 15 mph    
Visibility 10 miles    
Events      
T = Trace of Precipitation, MM = Missing Value Source: NWS Daily Summary

Daily Weather History Graph

Daily Weather History Graph

Search for Another Location

Airport:

Trip Planner

Search our weather history database for the weather conditions in past years. The results will help you decide how hot, cold, wet, or windy it might be!

Date:

Astronomy

Oct. 17, 2013 Rise Set
Actual Time 7:11 AM PDT 6:16 PM PDT
Civil Twilight 6:44 AM PDT 6:43 PM PDT
Nautical Twilight 6:13 AM PDT 7:14 PM PDT
Astronomical Twilight 5:41 AM PDT 7:46 PM PDT
Moon 5:33 PM PDT (10/17) 5:49 AM PDT (10/17)
Length of Visible Light 11h 59m
Length of Day
11h 05m
Waxing Gibbous, 98% of the Moon is Illuminated
Oct 17
Waxing Gibbous
Oct 18
Full
Oct 26
Last Quarter
Nov 3
New
Nov 9
First Quarter

Hourly Weather History & Observations

Time (PDT) Temp. Dew Point Humidity Pressure Visibility Wind Dir Wind Speed Gust Speed Precip Events Conditions
12:55 AM 44.1 °F 27.0 °F 51% 30.14 in 10.0 mi Calm Calm - N/A   Clear
1:55 AM 42.1 °F 27.0 °F 55% 30.13 in 10.0 mi Calm Calm - N/A   Clear
2:55 AM 39.0 °F 27.0 °F 62% 30.13 in 10.0 mi Calm Calm - N/A   Clear
3:55 AM 39.0 °F 27.0 °F 62% 30.12 in 10.0 mi Calm Calm - N/A   Clear
4:55 AM 37.0 °F 27.0 °F 67% 30.13 in 10.0 mi Calm Calm - N/A   Clear
5:55 AM 35.1 °F 26.1 °F 70% 30.14 in 10.0 mi Calm Calm - N/A   Clear
6:55 AM 36.0 °F 26.1 °F 67% 30.16 in 10.0 mi Calm Calm - N/A   Clear
7:55 AM 37.9 °F 27.0 °F 65% 30.17 in 10.0 mi Calm Calm - N/A   Clear
8:55 AM 41.0 °F 28.0 °F 60% 30.18 in 10.0 mi Calm Calm - N/A   Clear
9:55 AM 46.9 °F 26.1 °F 44% 30.18 in 10.0 mi Calm Calm - N/A   Clear
10:55 AM 53.1 °F 26.1 °F 35% 30.16 in 10.0 mi Calm Calm - N/A   Clear
11:55 AM 59.0 °F 25.0 °F 27% 30.13 in 10.0 mi Calm Calm - N/A   Clear
12:55 PM 63.0 °F 24.1 °F 23% 30.10 in 10.0 mi Calm Calm - N/A   Clear
1:55 PM 66.0 °F 21.0 °F 18% 30.07 in 10.0 mi East 4.6 mph - N/A   Clear
2:55 PM 69.1 °F 19.9 °F 15% 30.06 in 10.0 mi Variable 4.6 mph - N/A   Clear
3:55 PM 69.1 °F 18.0 °F 14% 30.05 in 10.0 mi NE 6.9 mph - N/A   Clear
4:55 PM 69.1 °F 18.0 °F 14% 30.06 in 10.0 mi NE 5.8 mph - N/A   Clear
5:55 PM 66.9 °F 19.0 °F 16% 30.06 in 10.0 mi NNE 9.2 mph - N/A   Clear
6:55 PM 61.0 °F 19.9 °F 21% 30.09 in 10.0 mi NNE 9.2 mph - N/A   Clear
7:55 PM 57.9 °F 19.9 °F 23% 30.12 in 10.0 mi North 8.1 mph - N/A   Clear
8:55 PM 54.0 °F 21.9 °F 29% 30.14 in 10.0 mi Calm Calm - N/A   Clear
9:55 PM 48.9 °F 23.0 °F 36% 30.15 in 10.0 mi SSW 4.6 mph - N/A   Clear
10:55 PM 48.9 °F 23.0 °F 36% 30.14 in 10.0 mi Calm Calm - N/A   Clear
11:55 PM 46.9 °F 21.0 °F 36% 30.14 in 10.0 mi WNW 3.5 mph - N/A   Clear